Regional Weather Roundup
Issued by NWS Newport/Morehead, NC

Current Version | Previous Version | Text Only | Print | Product List | Glossary On
Versions: 1 2 3 4 5 6 7 8 9 10 11 12 13 14 15 16 17 18 19 20 21 22 23 24 25 26 27 28 29 30 31 32 33 34 35 36 37 38 39 40 41 42 43 44 45 46 47 48 49 50
000
ASUS42 KMHX 211325
RWRMHX
WEATHER ROUNDUP FOR EASTERN NORTH CAROLINA
NATIONAL WEATHER SERVICE NEWPORT/MOREHEAD CITY NC
800 AM EST SUN JAN 21 2018

NOTE: "FAIR" INDICATES FEW OR NO CLOUDS BELOW 12,000 FEET
WITH NO SIGNIFICANT WEATHER AND/OR OBSTRUCTIONS TO VISIBILITY

NCZ015>017-031-032-045>047-102-103-211400-
NORTH COAST

CITY           SKY/WX    TMP DP  RH WIND       PRES   REMARKS
EDENTON        FAIR      39  33  81 CALM      30.23R
ELIZABETH CITY FAIR      35  34  96 CALM      30.22R
KITTY HAWK     FAIR      39  31  72 CALM      30.20R
MANTEO         FAIR      42  30  63 NW3       30.22R

$$

NCZ045>047-081-094-103-104-211400-
CENTRAL COAST

CITY           SKY/WX    TMP DP  RH WIND       PRES   REMARKS
FRISCO         FAIR      44  35  70 W7        30.22R

$$

NCZ095-097-098-100-101-211400-
SOUTHERN COAST

CITY           SKY/WX    TMP DP  RH WIND       PRES   REMARKS
BEAUFORT       FAIR      41  35  79 W3        30.25R
CEDAR ISLAND   NOT AVBL
JACKSONVILLE   FAIR      39  33  79 W3        30.25R
PINEY ISLAND   NOT AVBL
WILMINGTON     FAIR      41  33  73 CALM      30.26R


$$

NCZ011>013-027>030-043-044-078>080-089-090>093-098-211400-
COASTAL PLAIN

CITY           SKY/WX    TMP DP  RH WIND       PRES   REMARKS
AHOSKIE        FAIR      32  32  99 CALM      30.23R
CLINTON        FAIR      33  30  91 CALM      30.26R
ELIZABETHTOWN  NOT AVBL
GOLDSBORO      FAIR      39  29  66 CALM      30.22R
GREENVILLE     FAIR      37  32  81 CALM      30.24S
HAVELOCK       FAIR      39  33  79 W3        30.25R
KENANSVILLE    FAIR      32  28  86 CALM      30.26R
KINSTON        FAIR      37  30  75 CALM      30.24R
NEW BERN       FAIR      40  29  64 SW3       30.25R
RICHLANDS      FAIR      32  29  88 S3        30.26R
ROCKY MOUNT    NOT AVBL
WASHINGTON     FAIR      37  31  79 CALM      30.24R
WHITEVILLE     FAIR      35  32  90 CALM      30.26R

$$

AMZ130-135-150-152-154-156-158-170-250-252-270-ANZ085-086-088-633-658-670-211400-
MARINE OBSERVATIONS

STATION/POSITION TIME  TEMP    WIND        PRES    WAVE   SWELL
                       AIR SEA DIR/SP/G            HT/PER HT/PER
                 (UTC) (F)     (DEG/KT/KT) (MB)    (FT/S) (FT/S)
CHESAPEAKE LIGHT NOT AVBL
64 E VA BEACH    1250   51 57  330/ 10/ 12 1022.7    3/ 6   2/ 6
DUCK             1300   41 40  300/  6/  7 1022.4
2 E DUCK         1300      40                N/A     1/11
OREGON INLET     1300   40 40  220/  3/  4 1023.1
13E OREGON INLT  1248      40                N/A     2/11   2/11
HATTERAS CG      1300   44 49  280/  9/ 12 1023.1
DIAMOND BUOY     1310   56     310/ 14/ 17 1023.7
CAPE LOOKOUT     1300          270/  5/  6 1024.3
BEAUFORT LAB     1300   44 46   CALM  /  2 1024.1
30 SE NEW RVR IN 1308   54 57  300/  8/ 10 1024.7
30 SE NEW RVR IN 1300      57                N/A     3/ 5
27 SE WRIGHTSVLE 1308   54 59  290/ 10/ 14 1024.6
5 SE WRIGHTSVLE  1308   46 45  270/  4/  6 1024.3
225 S CAPE HAT   1250   68 70  220/  8/ 10 1024.4    3/ 5   3/ 5
41 SE CHARLESTON 1310   60     290/  8/ 12 1024.6

$$



USA.gov is the U.S. government's official web portal to all federal, state and local government web resources and services.